Simultaneous Nadir Overpasses (SNOs) Predictions

Prediction of SNOs between NOAA-20 and AQUA Satellite Orbit:

Table of predicted SNOs for the next 14.0 days since TLE Epoch: 4/27/2018
Index Date (NOAA-20) Time (NOAA-20) Lat,Lon (NOAA-20) SZA (NOAA-20 ) Date (AQUA) Time (AQUA) Lat,Lon (AQUA) SZA (AQUA ) Distance(km) Time Diff (sec)
1 04/29/2018 14:29:33 75.96,-158.65 82.89 04/29/2018 14:30:34 75.97,-158.61 82.83 1.21 61
2 04/29/2018 15:19:53 -77.12, 13.02 98.58 04/29/2018 15:19:37 -77.11, 12.91 98.53 2.95 16
3 05/02/2018 06:46:18 76.37, -41.45 81.58 05/02/2018 06:46:52 76.37, -41.44 81.55 0.23 34
4 05/02/2018 07:36:46 -77.16, 128.97 99.44 05/02/2018 07:36:02 -77.17, 129.03 99.42 1.67 44
5 05/04/2018 23:03:02 76.81, 76.00 80.25 05/04/2018 23:03:09 76.81, 75.94 80.25 1.48 7
6 05/04/2018 23:53:32 -77.50,-113.76 100.66 05/04/2018 23:52:21 -77.50,-113.78 100.60 0.37 71
7 05/07/2018 14:29:25 -76.19, 22.12 99.71 05/07/2018 14:30:21 -76.18, 22.09 99.75 0.83 56
8 05/07/2018 15:19:53 76.89,-167.90 79.40 05/07/2018 15:19:32 76.90,-167.83 79.40 2.15 21
9 05/10/2018 06:46:16 -76.32, 138.36 100.58 05/10/2018 06:46:44 -76.33, 138.44 100.62 2.36 28




NCC Satellite Simultaneous Nadir Overpasses (SNOs) Prediction Service
